Location: *
(13.2257°S, 48.7193°W)
Time: 13:17:18
(UTC+00:00)

Cosmos 2123 Rocket - Pass Details

Date: 13 February 2026
Orbit: 960 x 992 km, 82.9° (Epoch: 11 March)

Event Time Altitude Azimuth Distance (km) Brightness Sun altitude
Rises 08:42:39 0° 350° (N) 3,625 6.7 -7.9°
Reaches altitude 10° 08:45:09 10° 348° (NNW) 2,683 6.0 -7.3°
Maximum altitude 08:51:14 67° 266° (W) 1,039 4.0 -5.9°
Drops below altitude 10° 08:57:23 10° 184° (S) 2,705 6.5 -4.5°
Sets 08:59:55 0° 181° (S) 3,658 7.2 -3.9°
